User: anonymous   Login
Location: Castelbiague
(43.0361°N, 0.9246°E)
Time: 19:48:45
(UTC+00:00)
Language:

FENGYUN 1C DEB - Orbit

View from above orbital plane
View from above orbital plane
View from above satellite
View from above satellite

Ground track
Ground track

The orbit data is extracted from the following two-line orbital elements,

1 30320U 99025AAH 22021.59298326  .00000427  00000-0  32749-3 0  9995
2 30320  99.3703  49.2328 0086630 212.7271 270.7437 13.97322873765524
Epoch (UTC): 21 January 2022 14:13:53
Eccentricity: 0.0086630
inclination: 99.3703°
perigee height: 840 km
apogee height: 966 km
right ascension of ascending node: 49.2328°
argument of perigee: 212.7271°
revolutions per day: 13.97322873
mean anomaly at epoch: 270.7437°
orbit number at epoch: 76552

The dashed part of the orbit path shows where the satellite is in the earth's shadow,  

DLR